Athens, GA

9:09 AM EST on December 13, 2017 (GMT -0500)
Athens / Epps

Weather History for KAHN - May, 2013

Change the Weather History Date:

Wednesday, May 8, 2013

  Actual Average Record
Temperature  
Mean Temperature 66 °F 68 °F  
Max Temperature 79 °F 80 °F 97 °F (1940)
Min Temperature 52 °F 56 °F 37 °F (1989)
Cooling Degree Days 1 4  
Month to date cooling degree days 1 28  
Year to date cooling degree days 43 86  
Growing Degree Days 16 (Base 50)    
Moisture  
Dew Point 53 °F    
Average Humidity 66    
Maximum Humidity 93    
Minimum Humidity 39    
Precipitation  
Precipitation 0.00 in 0.10 in 2.96 in (1915)
Month to date precipitation 3.06 0.81  
Year to date precipitation 22.51 16.92  
Sea Level Pressure  
Sea Level Pressure 30.00 in    
Wind  
Wind Speed 5 mph (West)    
Max Wind Speed 14 mph    
Max Gust Speed 18 mph    
Visibility 10 miles    
Events      
T = Trace of Precipitation, MM = Missing Value Source: NWS Daily Summary

Daily Weather History Graph

Daily Weather History Graph

Search for Another Location

Airport or City:

Trip Planner

Search our weather history database for the weather conditions in past years. The results will help you decide how hot, cold, wet, or windy it might be!

Date:

Astronomy

May. 08, 2013 Rise Set
Actual Time 6:37 AM EDT 8:22 PM EDT
Civil Twilight 6:10 AM EDT 8:49 PM EDT
Nautical Twilight 5:37 AM EDT 9:22 PM EDT
Astronomical Twilight 5:02 AM EDT 9:57 PM EDT
Moon 5:41 AM EDT (5/8) 7:22 PM EDT (5/8)
Length of Visible Light 14h 39m
Length of Day
13h 45m
Waning Crescent, 2% of the Moon is Illuminated
May 8
Waning Crescent
May 9
New
May 18
First Quarter
May 25
Full
May 31
Last Quarter

Hourly Weather History & Observations

Time (EDT) Temp. Dew Point Humidity Pressure Visibility Wind Dir Wind Speed Gust Speed Precip Events Conditions
12:51 AM 55.0 °F 52.0 °F 89% 29.97 in 10.0 mi WSW 3.5 mph - N/A   Clear
1:51 AM 54.0 °F 51.1 °F 90% 29.96 in 10.0 mi WSW 3.5 mph - N/A   Clear
2:51 AM 53.1 °F 51.1 °F 93% 29.95 in 10.0 mi Calm Calm - N/A   Clear
3:51 AM 53.1 °F 51.1 °F 93% 29.95 in 9.0 mi West 3.5 mph - N/A   Clear
4:51 AM 53.1 °F 50.0 °F 89% 29.96 in 10.0 mi NW 4.6 mph - N/A   Clear
5:51 AM 54.0 °F 51.1 °F 90% 29.97 in 10.0 mi WNW 5.8 mph - N/A   Clear
6:51 AM 55.9 °F 52.0 °F 87% 29.99 in 9.0 mi WNW 4.6 mph - N/A   Overcast
7:51 AM 55.4 °F 51.8 °F 88% 30.01 in 9.0 mi West 4.6 mph - N/A   Mostly Cloudy
8:51 AM 57.0 °F 53.1 °F 87% 30.03 in 9.0 mi West 3.5 mph - N/A   Mostly Cloudy
9:51 AM 66.0 °F 55.9 °F 70% 30.04 in 10.0 mi West 5.8 mph - N/A   Partly Cloudy
10:51 AM 70.0 °F 55.0 °F 59% 30.04 in 10.0 mi NW 5.8 mph - N/A   Clear
11:51 AM 72.0 °F 52.0 °F 49% 30.04 in 10.0 mi WNW 11.5 mph 18.4 mph N/A   Clear
12:51 PM 75.9 °F 54.0 °F 46% 30.03 in 10.0 mi WNW 9.2 mph - N/A   Scattered Clouds
1:51 PM 75.9 °F 54.0 °F 46% 30.02 in 10.0 mi West 8.1 mph 17.3 mph N/A   Scattered Clouds
2:51 PM 75.9 °F 53.1 °F 45% 30.02 in 10.0 mi WNW 9.2 mph - N/A   Scattered Clouds
3:51 PM 75.9 °F 52.0 °F 43% 30.00 in 10.0 mi Variable 6.9 mph - N/A   Mostly Cloudy
4:51 PM 78.1 °F 52.0 °F 40% 29.99 in 10.0 mi WNW 10.4 mph - N/A   Mostly Cloudy
5:51 PM 75.9 °F 54.0 °F 46% 29.99 in 10.0 mi West 6.9 mph - N/A   Overcast
6:51 PM 75.0 °F 53.1 °F 46% 29.99 in 10.0 mi Variable 6.9 mph - N/A   Partly Cloudy
7:51 PM 72.0 °F 53.1 °F 51% 30.00 in 10.0 mi WSW 4.6 mph - N/A   Clear
8:51 PM 68.0 °F 53.1 °F 59% 30.02 in 10.0 mi West 4.6 mph - N/A   Clear
9:51 PM 66.0 °F 54.0 °F 65% 30.03 in 10.0 mi Calm Calm - N/A   Partly Cloudy
10:51 PM 62.1 °F 54.0 °F 75% 30.05 in 10.0 mi Calm Calm - N/A   Clear
11:51 PM 61.0 °F 55.0 °F 81% 30.05 in 9.0 mi Calm Calm - N/A   Clear